Weather History for International Falls, MN

Change the Weather History Date:

Tuesday, February 12, 2013

  Actual Average Record
Temperature  
Mean Temperature 18 °F 9 °F  
Max Temperature 31 °F 21 °F 43 °F (1976)
Min Temperature 4 °F -3 °F -40 °F (1914)
Degree Days  
Heating Degree Days 47 56  
Month to date heating degree days 730 691  
Since 1 July heating degree days 6692 6744  
Cooling Degree Days 0 0  
Month to date cooling degree days 0 0  
Year to date cooling degree days 0 0  
Moisture  
Dew Point 14 °F    
Average Humidity 80    
Maximum Humidity 96    
Minimum Humidity 63    
Precipitation  
Precipitation T in 0.02 in 0.30 in (1984)
Month to date precipitation 0.90 0.21  
Year to date precipitation 3.05 0.83  
Snow  
Snow T in 0.40 in 3.20 in (1994)
Month to date snowfall 12.1 4.6  
Since 1 July snowfall 61.6 50.6  
Snow Depth 25.00 in    
Sea Level Pressure  
Sea Level Pressure 29.78 in    
Wind  
Wind Speed 7 mph (SW)    
Max Wind Speed 13 mph    
Max Gust Speed 16 mph    
Visibility 10 miles    
Events      
T = Trace of Precipitation, MM = Missing Value Source: NWS Daily Summary

Daily Weather History Graph

Daily Weather History Graph

Search for Another Location

Airport:

Trip Planner

Search our weather history database for the weather conditions in past years. The results will help you decide how hot, cold, wet, or windy it might be!

Date:

Astronomy

Feb. 12, 2013 Rise Set
Actual Time 7:25 AM CST 5:30 PM CST
Civil Twilight 6:53 AM CST 6:03 PM CST
Nautical Twilight 6:16 AM CST 6:40 PM CST
Astronomical Twilight 5:39 AM CST 7:16 PM CST
Moon 8:05 AM CST (2/12) 8:52 PM CST (2/12)
Length of Visible Light 11h 10m
Length of Day
10h 04m
Waxing Crescent, 7% of the Moon is Illuminated
Feb 12
Waxing Crescent
Feb 17
First Quarter
Feb 25
Full
Mar 4
Last Quarter
Mar 11
New

Hourly Weather History & Observations

Time (CST) Temp. Windchill Dew Point Humidity Pressure Visibility Wind Dir Wind Speed Gust Speed Precip Events Conditions
12:55 AM 7.0 °F -3.3 °F 5.0 °F 92% 29.92 in 10.0 mi SW 5.8 mph - N/A   Clear
1:55 AM 3.9 °F -5.3 °F 1.0 °F 88% 29.91 in 10.0 mi SW 4.6 mph - N/A   Partly Cloudy
2:07 AM 5.0 °F -2.1 °F 1.4 °F 85% 29.83 in 10.0 mi SSW 3.5 mph - N/A   Mostly Cloudy
2:55 AM 9.0 °F -0.9 °F 6.1 °F 88% 29.90 in 8.0 mi SSW 5.8 mph - N/A   Overcast
3:27 AM 10.4 °F 2.2 °F 6.8 °F 85% 29.81 in 10.0 mi SSW 4.6 mph - N/A   Overcast
3:55 AM 10.9 °F 1.4 °F 7.0 °F 84% 29.88 in 10.0 mi SSW 5.8 mph - N/A   Overcast
4:20 AM 10.4 °F 0.8 °F 8.6 °F 92% 29.80 in 10.0 mi SSW 5.8 mph - N/A   Overcast
4:55 AM 12.0 °F 4.1 °F 9.0 °F 88% 29.87 in 10.0 mi South 4.6 mph - N/A   Overcast
5:55 AM 12.9 °F 6.9 °F 10.0 °F 88% 29.86 in 10.0 mi South 3.5 mph - N/A   Overcast
6:55 AM 12.9 °F 5.2 °F 10.9 °F 92% 29.84 in 10.0 mi Variable 4.6 mph - N/A   Overcast
7:55 AM 14.0 °F 8.2 °F 12.0 °F 92% 29.83 in 10.0 mi Variable 3.5 mph - N/A   Overcast
8:55 AM 15.1 °F 3.3 °F 12.9 °F 91% 29.81 in 10.0 mi South 9.2 mph - N/A   Overcast
9:38 AM 17.6 °F 9.3 °F 14.0 °F 86% 29.73 in 10.0 mi South 5.8 mph - N/A   Overcast
9:51 AM 17.6 °F 8.2 °F 14.0 °F 86% 29.74 in 10.0 mi SSW 6.9 mph - N/A   Overcast
9:55 AM 17.1 °F 8.7 °F 14.0 °F 88% 29.81 in 10.0 mi SSW 5.8 mph - N/A   Overcast
10:02 AM 17.6 °F 10.7 °F 14.0 °F 86% 29.73 in 10.0 mi Variable 4.6 mph - N/A   Overcast
10:55 AM 19.9 °F 9.3 °F 16.0 °F 85% 29.79 in 10.0 mi SW 9.2 mph - N/A   Overcast
11:55 AM 23.0 °F 12.4 °F 17.1 °F 78% 29.78 in 10.0 mi SW 10.4 mph - N/A   Overcast
12:37 PM 24.8 °F 16.1 °F 17.6 °F 74% 29.70 in 10.0 mi SW 8.1 mph 16.1 mph N/A   Mostly Cloudy
12:55 PM 26.1 °F 17.6 °F 18.0 °F 71% 29.76 in 10.0 mi WSW 8.1 mph - N/A   Scattered Clouds
1:55 PM 28.9 °F 21.1 °F 19.0 °F 67% 29.75 in 10.0 mi WSW 8.1 mph - N/A   Partly Cloudy
2:55 PM 30.0 °F 22.4 °F 19.9 °F 66% 29.73 in 10.0 mi West 8.1 mph - N/A   Clear
3:55 PM 30.9 °F 24.3 °F 19.9 °F 64% 29.73 in 10.0 mi WSW 6.9 mph - N/A   Clear
4:55 PM 28.9 °F 20.4 °F 19.9 °F 69% 29.72 in 10.0 mi SW 9.2 mph - N/A   Scattered Clouds
5:55 PM 27.0 °F 18.7 °F 19.0 °F 72% 29.71 in 10.0 mi SW 8.1 mph - N/A   Partly Cloudy
6:55 PM 25.0 °F 14.8 °F 18.0 °F 75% 29.72 in 10.0 mi WSW 10.4 mph - N/A   Clear
7:55 PM 23.0 °F 13.9 °F 17.1 °F 78% 29.71 in 10.0 mi WSW 8.1 mph 16.1 mph N/A   Mostly Cloudy
8:55 PM 21.9 °F 11.7 °F 16.0 °F 78% 29.71 in 10.0 mi WSW 9.2 mph - N/A   Clear
9:55 PM 21.0 °F 11.4 °F 16.0 °F 81% 29.70 in 10.0 mi WSW 8.1 mph - N/A   Clear
10:55 PM 19.9 °F 11.1 °F 16.0 °F 85% 29.69 in 10.0 mi WSW 6.9 mph - N/A   Clear
11:55 PM 18.0 °F 8.7 °F 15.1 °F 88% 29.69 in 10.0 mi SW 6.9 mph - N/A   Mostly Cloudy